Home   Weather   Whistler   Past weeks

Flag for Canada Past Weather in Whistler, British Columbia, Canada — Yesterday and Last 2 Weeks

Now
29 °F

Chilly.


Feels Like: 29 °F
Forecast: 19 / 30 °F
Wind: 2 mph from Northeast

Location: Squamish Airport

Current Time: Jan 24, 2017 at 7:31:50 am

Latest Report: Jan 24, 2017 at 7:00 am


Visibility: N/A

Pressure: 30.09 "Hg (27.64 "Hg at 674m altitude)

Humidity: 91%

Dew Point: 27 °F

Location of WhistlerLocation

Past Weather in Whistler — Graph

°F

Whistler Temperature Yesterday

Maximum temperature yesterday: 44 °F (at 1:00 pm)
Minimum temperature yesterday: 29 °F (at 6:00 am)
Average temperature yesterday: 33 °F

High & Low Weather Summary for the Past Weeks

 TemperatureHumidityPressure
High44 °F (Jan 23, 1:00 pm)100% (Jan 9, 10:00 am)30.51 "Hg (Jan 9, 10:00 am)
Low10 °F (Jan 12, 6:00 am)27% (Jan 10, 11:00 pm)29.17 "Hg (Jan 20, 3:00 pm)
Average31 °F86%29.82 "Hg
* Reported Jan 9 6:00 am — Jan 24 6:00 am, Whistler, Weather by CustomWeather, © 2017

Note: Actual official high and low records may vary slightly from our data, if they occured in-between our weather recording intervals... More about our weather records

Advertising

Whistler Weather History for the Previous 24 Hours

Scroll right to see more
 ConditionsComfort  
Time TempWeatherWind HumidityBarometerVisibility
6:00 am
Tue, Jan 24
27 °FChilly.1 mph98%30.09 "HgN/A
5:00 am26 °FChilly.No wind98%30.08 "HgN/A
4:00 am28 °FChilly.1 mph98%30.07 "HgN/A
3:00 am27 °FChilly.1 mph98%30.05 "HgN/A
2:00 am28 °FChilly.No wind100%30.04 "HgN/A
1:00 am30 °FChilly.3 mph99%30.03 "HgN/A
12:00 am28 °FChilly.1 mph98%30.02 "HgN/A
11:00 pm
Mon, Jan 23
31 °FChilly.2 mph99%30.01 "HgN/A
10:00 pm30 °FChilly.1 mph98%29.99 "HgN/A
9:00 pm30 °FChilly.2 mph99%29.97 "HgN/A
8:00 pm31 °FChilly.1 mph98%29.95 "HgN/A
7:00 pm31 °FChilly.1 mph99%29.94 "HgN/A
6:00 pm32 °FChilly.1 mph98%29.92 "HgN/A
5:00 pm31 °FChilly.1 mph100%29.90 "HgN/A
4:00 pm35 °FChilly.1 mph92%29.88 "HgN/A
3:00 pm42 °FQuite cool.1 mph74%29.86 "HgN/A
2:00 pm44 °FQuite cool.2 mph71%29.85 "HgN/A
1:00 pm44 °FQuite cool.1 mph72%29.85 "HgN/A
12:00 pm38 °FChilly.2 mph89%29.85 "HgN/A
11:00 am36 °FChilly.2 mph97%29.86 "HgN/A
10:00 am32 °FChilly.2 mph100%29.86 "HgN/A
9:00 am30 °FChilly.2 mph99%29.84 "HgN/A
8:00 am29 °FChilly.1 mph99%29.81 "HgN/A
7:00 am29 °FChilly.2 mph99%29.79 "HgN/A
Weather by CustomWeather, © 2017

See weather overviewHow to use our weather pages